Location: Unspecified
(51.0950°N, 12.9690°E)
Time: 21:59:49
(UTC+00:00)

First-Move - Pass Details

Date: 27 April 2024
Orbit: 539 x 600 km, 97.7° (Epoch: 17 May)

Event Time Altitude Azimuth Distance (km) Brightness Sun altitude
Rises 02:31:05 0° 16° (NNE) 2,872 ? -11.1°
Reaches altitude 10° 02:33:18 10° 19° (NNE) 1,966 ? -10.9°
Maximum altitude 02:37:33 65° 102° (ESE) 672 ? -10.3°
Drops below altitude 10° 02:41:46 10° 184° (S) 1,947 ? -9.8°
Enters shadow 02:43:15 - 187° (S) 2,555 ? -9.6°
